sat.trackr.live / text

‹ back to catalog

STARLINK-5057

NORAD 53908 · 2022-119Y

PAYLOAD ACTIVE UNKNOWN

§ Identity

Operator
Country
US
Launch date
2022-09-24
Launch site
AFETR
Launch vehicle
Mass (kg)
RCS (m²)

Purposes: comms

External: N2YO · Heavens-Above · Gunter

§ Orbital elements

Epoch: 2026-09-20T23:13:59.521728Z

Period
94.01 min
Inclination
53.1586°
Eccentricity
0.0001309
Mean motion
15.31703734 rev/d
Perigee alt
469.8 km
Apogee alt
471.6 km
Semi-major
6,848.9 km
B*
2.6927e-5
RAAN
145.7194°
Arg perigee
83.6416°
Mean anomaly
276.4734°
Rev number
22,146

§ Raw data

STARLINK-50571 53908U 22119Y   26263.96805002  .00000471  00000+0  26927-4 0  99902 53908  53.1586 145.7194 0001309  83.6416 276.4734 15.31703734221469

JSON: /api/v1/satellites/53908 · /tle

For live sub-satellite position, see the globe view (requires WebGL).

§ Visibility from observer

Set your observer location to see the next 7 days of passes ≥ 10°. The values pass through the URL so the page stays shareable.

No JS? Fill the form by hand. The geolocation button needs JavaScript.